DRAGONFLY

Last updated on Mon Oct 20 2025 00:02:06 GMT+0000 (Coordinated Universal Time)

1 65729U 98067XH 25291.64153307 .00127829 00000+0 17363-2 0 9997 2 65729 51.6324 54.3632 0001107 52.8504 307.2589 15.56681962 4544
UTC large
Height (km)
Speed (km/s)
/
Latitude / Longitude
Inclination (degrees)
Orbital Period (minutes)
Azimuth
Elevation
Range (km)
Doppler Factor

Next 0 passes for location: London (51.5072 / 0.1276)

Sorry there are no passes over London.